sat.trackr.live / text

‹ back to catalog

STARLINK-36046

NORAD 66810 · 2025-278V

PAYLOAD ACTIVE UNKNOWN

§ Identity

Operator
Country
US
Launch date
2025-12-01
Launch site
AFETR
Launch vehicle
Mass (kg)
RCS (m²)

Purposes: comms

External: N2YO · Heavens-Above · Gunter

§ Orbital elements

Epoch: 2026-09-20T21:50:06.868608Z

Period
94.27 min
Inclination
43.0044°
Eccentricity
0.0000758
Mean motion
15.27602827 rev/d
Perigee alt
482.5 km
Apogee alt
483.5 km
Semi-major
6,861.1 km
B*
3.8134e-4
RAAN
92.0248°
Arg perigee
290.1464°
Mean anomaly
69.9306°
Rev number
4,506

§ Raw data

STARLINK-360461 66810U 25278V   26263.90980172  .00010253  00000+0  38134-3 0  99922 66810  43.0044  92.0248 0000758 290.1464  69.9306 15.27602827 45067

JSON: /api/v1/satellites/66810 · /tle

For live sub-satellite position, see the globe view (requires WebGL).

§ Visibility from observer

Set your observer location to see the next 7 days of passes ≥ 10°. The values pass through the URL so the page stays shareable.

No JS? Fill the form by hand. The geolocation button needs JavaScript.